Location: Byhalia Creek
(34.8270°N, 89.8040°W)
Time: 20:27:14
(UTC+00:00)

CZ-4 R/B - Pass Details

Date: 22 April 2026
Orbit: 490 x 536 km, 97.5° (Epoch: 21 May)

Event Time Altitude Azimuth Distance (km) Brightness Sun altitude
Exits shadow 01:54:43 25° 154° (SSE) 1,073 2.3 -15.7°
Maximum altitude 01:56:47 68° 77° (ENE) 552 1.1 -16.1°
Drops below altitude 10° 02:00:29 10° 354° (N) 1,724 4.3 -16.8°
Sets 02:02:33 0° 352° (N) 2,605 5.3 -17.2°
